| time (UTC) | temp F | wind direction | speed MPH | gust MPH | rain 1hr in | rain 24hr in | rain mn in | humidity % | barometer mb |
| 20260901074546 | 72 | 0 | 0.0 | 0.0 | 0.00 | 0.00 | 0.00 | 95 | 1018.8 |
| 20260901073040 | 72 | 0 | 0.0 | 0.0 | 0.00 | 0.00 | 0.00 | 94 | 1019.0 |
| 20260901071548 | 72 | 0 | 0.0 | 0.0 | 0.00 | 0.00 | 0.00 | 94 | 1019.1 |
| 20260901070053 | 73 | 0 | 0.0 | 0.0 | 0.00 | 0.00 | 0.00 | 94 | 1019.2 |
| 20260901064542 | 73 | 0 | 0.0 | 0.0 | 0.00 | 0.00 | 0.00 | 93 | 1019.3 |
| 20260901063058 | 73 | 0 | 0.0 | 0.0 | 0.00 | 0.00 | 0.00 | 93 | 1019.4 |
| 20260901061601 | 73 | 0 | 0.0 | 0.0 | 0.00 | 0.00 | 0.00 | 92 | 1019.4 |
| 20260901060047 | 73 | 0 | 0.0 | 0.0 | 0.00 | 0.00 | 0.00 | 91 | 1019.3 |
| 20260901054550 | 73 | 0 | 0.0 | 0.0 | 0.00 | 0.00 | 0.00 | 91 | 1019.5 |
| 20260901053056 | 74 | 0 | 0.0 | 0.0 | 0.00 | 0.00 | 0.00 | 90 | 1019.4 |
| 20260901051546 | 74 | 0 | 0.0 | 0.0 | 0.00 | 0.00 | 0.00 | 91 | 1019.5 |
| 20260901050048 | 74 | 0 | 0.0 | 0.0 | 0.00 | 0.00 | 0.00 | 91 | 1019.5 |
| 20260901044601 | 73 | 0 | 0.0 | 0.0 | 0.00 | 0.00 | 0.00 | 92 | 1019.4 |
| 20260901043049 | 74 | 0 | 0.0 | 0.0 | 0.00 | 0.00 | 0.00 | 94 | 1019.4 |
| 20260901041547 | 74 | 0 | 0.0 | 0.0 | 0.00 | 0.00 | 0.00 | 95 | 1019.2 |
| 20260901040058 | 73 | 0 | 0.0 | 0.0 | 0.00 | 0.00 | 0.00 | 93 | 1019.4 |
| 20260901034551 | 73 | 0 | 0.0 | 0.0 | 0.00 | 0.00 | 0.00 | 93 | 1019.3 |
| 20260901033051 | 74 | 0 | 0.0 | 0.0 | 0.00 | 0.00 | 0.00 | 93 | 1019.2 |
| 20260901031550 | 74 | 0 | 0.0 | 0.0 | 0.00 | 0.00 | 0.00 | 92 | 1019.0 |
| 20260901030049 | 74 | 0 | 0.0 | 0.0 | 0.00 | 0.00 | 0.00 | 92 | 1019.1 |
| 20260901024559 | 74 | 0 | 0.0 | 0.0 | 0.00 | 0.00 | 0.00 | 93 | 1018.9 |
| 20260901023050 | 75 | 0 | 0.0 | 0.0 | 0.00 | 0.00 | 0.00 | 94 | 1018.9 |
| 20260901021604 | 75 | 0 | 0.0 | 0.0 | 0.00 | 0.00 | 0.00 | 94 | 1018.9 |
| 20260901020046 | 75 | 0 | 0.0 | 0.0 | 0.00 | 0.00 | 0.00 | 93 | 1018.8 |
| 20260901014542 | 76 | 0 | 0.0 | 0.0 | 0.00 | 0.00 | 0.00 | 93 | 1018.9 |
| 20260901013049 | 76 | 0 | 0.0 | 0.0 | 0.00 | 0.00 | 0.00 | 92 | 1018.8 |
| 20260901011547 | 77 | 0 | 0.0 | 0.0 | 0.00 | 0.00 | 0.00 | 92 | 1018.7 |
| 20260901010051 | 77 | 0 | 0.0 | 0.0 | 0.00 | 0.00 | 0.00 | 91 | 1018.3 |
| 20260901004550 | 78 | 0 | 0.0 | 0.0 | 0.00 | 0.00 | 0.00 | 89 | 1018.0 |
| 20260901003043 | 78 | 0 | 0.0 | 0.0 | 0.00 | 0.00 | 0.00 | 88 | 1018.2 |
| 20260901001548 | 79 | 0 | 0.0 | 0.0 | 0.00 | 0.00 | 0.00 | 85 | 1018.1 |
| 20260901000045 | 80 | 0 | 0.0 | 0.0 | 0.00 | 0.00 | 0.00 | 83 | 1018.0 |
| 20260831234544 | 81 | 0 | 0.0 | 0.0 | 0.00 | 0.00 | 0.00 | 81 | 1017.9 |
| 20260831233048 | 82 | 0 | 0.0 | 0.0 | 0.00 | 0.00 | 0.00 | 78 | 1018.0 |
| 20260831231557 | 83 | 0 | 0.0 | 0.0 | 0.00 | 0.00 | 0.00 | 75 | 1018.0 |
| 20260831230046 | 84 | 0 | 0.0 | 0.0 | 0.00 | 0.00 | 0.00 | 74 | 1017.8 |
| 20260831224619 | 84 | 0 | 0.0 | 0.0 | 0.00 | 0.00 | 0.00 | 74 | 1017.7 |
| 20260831223048 | 85 | 0 | 0.0 | 0.0 | 0.00 | 0.00 | 0.00 | 74 | 1017.9 |
| 20260831221553 | 85 | 0 | 0.0 | 0.0 | 0.00 | 0.00 | 0.00 | 72 | 1018.0 |
| 20260831220048 | 86 | 0 | 0.0 | 0.0 | 0.00 | 0.00 | 0.00 | 71 | 1018.0 |
| 20260831214550 | 87 | 0 | 0.0 | 1.0 | 0.00 | 0.00 | 0.00 | 68 | 1017.9 |
| 20260831213045 | 88 | 214 | 0.0 | 1.0 | 0.00 | 0.00 | 0.00 | 62 | 1018.0 |
| 20260831211601 | 88 | 0 | 0.0 | 2.0 | 0.00 | 0.00 | 0.00 | 61 | 1018.1 |
| 20260831210056 | 89 | 0 | 0.0 | 0.0 | 0.00 | 0.00 | 0.00 | 65 | 1018.2 |
| 20260831204547 | 91 | 0 | 0.0 | 1.0 | 0.00 | 0.00 | 0.00 | 64 | 1018.3 |
| 20260831203049 | 92 | 0 | 0.0 | 1.0 | 0.00 | 0.00 | 0.00 | 59 | 1018.4 |
| 20260831201542 | 90 | 72 | 0.0 | 1.0 | 0.00 | 0.00 | 0.00 | 62 | 1018.5 |
| 20260831200048 | 91 | 0 | 0.0 | 2.0 | 0.00 | 0.00 | 0.00 | 60 | 1018.5 |
| 20260831194556 | 90 | 0 | 0.0 | 1.0 | 0.00 | 0.00 | 0.00 | 57 | 1018.6 |
| 20260831193052 | 92 | 0 | 0.0 | 1.0 | 0.00 | 0.00 | 0.00 | 60 | 1018.7 |
| 20260831191548 | 93 | 72 | 0.0 | 1.0 | 0.00 | 0.00 | 0.00 | 60 | 1018.9 |
| 20260831190052 | 92 | 75 | 0.0 | 2.0 | 0.00 | 0.00 | 0.00 | 58 | 1019.1 |
| 20260831184549 | 92 | 0 | 0.0 | 3.0 | 0.00 | 0.00 | 0.00 | 57 | 1019.3 |
| 20260831183046 | 93 | 0 | 0.0 | 3.0 | 0.00 | 0.00 | 0.00 | 58 | 1019.5 |
| 20260831181546 | 93 | 0 | 0.0 | 2.0 | 0.00 | 0.00 | 0.00 | 58 | 1019.9 |
| 20260831180049 | 93 | 0 | 0.0 | 1.0 | 0.00 | 0.00 | 0.00 | 59 | 1020.0 |
| 20260831174550 | 91 | 224 | 0.0 | 2.0 | 0.00 | 0.00 | 0.00 | 65 | 1020.1 |
| 20260831173048 | 90 | 0 | 0.0 | 1.0 | 0.00 | 0.00 | 0.00 | 63 | 1020.2 |
| 20260831171546 | 89 | 0 | 0.0 | 2.0 | 0.00 | 0.00 | 0.00 | 65 | 1020.3 |
| 20260831170041 | 89 | 0 | 1.0 | 2.0 | 0.00 | 0.00 | 0.00 | 64 | 1020.6 |
| 20260831164547 | 88 | 0 | 0.0 | 2.0 | 0.00 | 0.00 | 0.00 | 73 | 1020.5 |
| 20260831163046 | 87 | 102 | 0.0 | 3.0 | 0.00 | 0.00 | 0.00 | 70 | 1020.4 |
| 20260831161549 | 87 | 0 | 0.0 | 2.0 | 0.00 | 0.00 | 0.00 | 76 | 1020.7 |
| 20260831160049 | 87 | 0 | 0.0 | 1.0 | 0.00 | 0.00 | 0.00 | 73 | 1020.7 |
| 20260831154622 | 86 | 0 | 0.0 | 2.0 | 0.00 | 0.00 | 0.00 | 76 | 1020.9 |
| 20260831153044 | 84 | 0 | 0.0 | 1.0 | 0.00 | 0.00 | 0.00 | 82 | 1021.0 |
| 20260831151607 | 83 | 231 | 0.0 | 1.0 | 0.00 | 0.00 | 0.00 | 83 | 1021.1 |
| 20260831150049 | 81 | 0 | 0.0 | 2.0 | 0.00 | 0.00 | 0.00 | 85 | 1021.2 |
| 20260831144547 | 80 | 70 | 1.0 | 2.0 | 0.00 | 0.00 | 0.00 | 86 | 1021.1 |
| 20260831143043 | 79 | 143 | 0.0 | 3.0 | 0.00 | 0.00 | 0.00 | 89 | 1020.9 |
| 20260831141544 | 77 | 0 | 0.0 | 3.0 | 0.00 | 0.00 | 0.00 | 91 | 1020.8 |
| 20260831140047 | 76 | 286 | 0.0 | 4.0 | 0.00 | 0.00 | 0.00 | 96 | 1020.8 |
| 20260831134557 | 74 | 0 | 0.0 | 2.0 | 0.00 | 0.00 | 0.00 | 100 | 1020.7 |
| 20260831133048 | 73 | 0 | 0.0 | 0.0 | 0.00 | 0.00 | 0.00 | 100 | 1020.7 |
| 20260831131547 | 72 | 0 | 0.0 | 0.0 | 0.00 | 0.00 | 0.00 | 100 | 1020.6 |
| 20260831130106 | 72 | 0 | 0.0 | 0.0 | 0.00 | 0.00 | 0.00 | 100 | 1020.6 |
| 20260831124551 | 70 | 0 | 0.0 | 0.0 | 0.00 | 0.00 | 0.00 | 100 | 1020.8 |
| 20260831123050 | 69 | 0 | 0.0 | 0.0 | 0.00 | 0.00 | 0.00 | 100 | 1021.0 |
| 20260831121546 | 67 | 0 | 0.0 | 0.0 | 0.00 | 0.00 | 0.00 | 99 | 1020.8 |
| 20260831120051 | 67 | 0 | 0.0 | 0.0 | 0.00 | 0.00 | 0.00 | 99 | 1020.8 |
| 20260831114548 | 66 | 0 | 0.0 | 0.0 | 0.00 | 0.00 | 0.00 | 99 | 1020.8 |
| 20260831113048 | 66 | 0 | 0.0 | 0.0 | 0.00 | 0.00 | 0.00 | 99 | 1020.8 |
| 20260831111541 | 66 | 0 | 0.0 | 0.0 | 0.00 | 0.00 | 0.00 | 99 | 1020.7 |
| 20260831110049 | 66 | 0 | 0.0 | 0.0 | 0.00 | 0.00 | 0.00 | 99 | 1020.5 |
| 20260831104546 | 66 | 0 | 0.0 | 0.0 | 0.00 | 0.00 | 0.00 | 99 | 1020.4 |
| 20260831103052 | 66 | 0 | 0.0 | 0.0 | 0.00 | 0.00 | 0.00 | 99 | 1020.3 |
| 20260831101543 | 66 | 0 | 0.0 | 0.0 | 0.00 | 0.00 | 0.00 | 99 | 1020.4 |
| 20260831100104 | 66 | 0 | 0.0 | 0.0 | 0.00 | 0.00 | 0.00 | 99 | 1020.5 |
| 20260831094548 | 66 | 0 | 0.0 | 0.0 | 0.00 | 0.00 | 0.00 | 99 | 1020.5 |
| 20260831093049 | 66 | 0 | 0.0 | 0.0 | 0.00 | 0.00 | 0.00 | 99 | 1020.3 |
| 20260831091557 | 66 | 0 | 0.0 | 0.0 | 0.00 | 0.00 | 0.00 | 99 | 1020.2 |
| 20260831090051 | 67 | 0 | 0.0 | 0.0 | 0.00 | 0.00 | 0.00 | 99 | 1020.1 |
| 20260831084550 | 67 | 0 | 0.0 | 0.0 | 0.00 | 0.00 | 0.00 | 99 | 1020.1 |
| 20260831083044 | 67 | 0 | 0.0 | 0.0 | 0.00 | 0.00 | 0.00 | 99 | 1020.2 |
| 20260831081551 | 67 | 0 | 0.0 | 0.0 | 0.00 | 0.00 | 0.00 | 99 | 1020.4 |
| 20260831080050 | 67 | 0 | 0.0 | 0.0 | 0.00 | 0.00 | 0.00 | 99 | 1020.3 |